TURKSAT 4B 1 40984U 15060A 21065.78314253 .00000099 00000-0 00000+0 0 9991 2 40984 0.0150 211.9929 0002099 132.5682 152.0798 1.00268807 19760 BREEZE-M R/B 1 40985U 15060B 21065.33926608 -.00000177 00000-0 00000-0 0 9995 2 40985 12.4425 136.6092 4748117 39.5099 346.9623 1.91628257 37701 BREEZE-M DEB [TANK] 1 40986U 15060C 21065.13376329 .00000949 00000-0 30899-3 0 9991 2 40986 49.2302 77.1636 6135816 131.0910 300.9866 3.81349368 74945